TimeCDT,TemperatureF,Dew PointF,Humidity,Sea Level PressureIn,VisibilityMPH,Wind Direction,Wind SpeedMPH,Gust SpeedMPH,PrecipitationIn,Events,Conditions,WindDirDegrees,DateUTC
12:53 AM,71.1,62.1,73,29.99,10.0,SSW,6.9,-,N/A,,Clear,210,2013-07-25 05:53:00
1:53 AM,70.0,62.1,76,29.98,10.0,South,6.9,-,N/A,,Clear,190,2013-07-25 06:53:00
2:53 AM,68.0,62.1,81,29.97,10.0,South,4.6,-,N/A,,Clear,180,2013-07-25 07:53:00
3:53 AM,64.9,61.0,87,29.96,10.0,South,4.6,-,N/A,,Clear,180,2013-07-25 08:53:00
4:53 AM,63.0,60.1,90,29.96,10.0,SE,3.5,-,N/A,,Clear,130,2013-07-25 09:53:00
5:53 AM,62.1,60.1,93,29.97,10.0,Calm,Calm,-,N/A,,Clear,0,2013-07-25 10:53:00
6:53 AM,63.0,60.1,90,29.97,10.0,South,4.6,-,N/A,,Clear,170,2013-07-25 11:53:00
7:53 AM,66.9,63.0,87,29.96,10.0,South,4.6,-,N/A,,Clear,190,2013-07-25 12:53:00
8:53 AM,71.1,64.9,81,29.96,10.0,South,5.8,-,N/A,,Clear,190,2013-07-25 13:53:00
9:53 AM,73.0,66.0,79,29.96,10.0,Calm,Calm,-,N/A,,Clear,0,2013-07-25 14:53:00
10:53 AM,73.0,66.0,79,29.98,10.0,North,9.2,-,N/A,,Clear,10,2013-07-25 15:53:00
11:53 AM,75.0,66.0,73,29.98,10.0,North,9.2,-,N/A,,Clear,360,2013-07-25 16:53:00
12:53 PM,77.0,64.9,66,29.99,10.0,NNE,4.6,-,N/A,,Clear,30,2013-07-25 17:53:00
1:53 PM,75.9,64.9,69,29.97,10.0,NNE,8.1,-,N/A,,Clear,20,2013-07-25 18:53:00
2:53 PM,75.9,64.9,69,29.99,10.0,NW,3.5,-,N/A,,Mostly Cloudy,310,2013-07-25 19:53:00
3:53 PM,77.0,64.9,66,29.99,10.0,NNW,9.2,-,0.00,,Clear,330,2013-07-25 20:53:00
4:53 PM,79.0,64.9,62,29.98,10.0,NW,8.1,-,N/A,,Mostly Cloudy,320,2013-07-25 21:53:00
5:53 PM,78.1,64.9,64,29.96,10.0,NW,4.6,-,N/A,,Overcast,320,2013-07-25 22:53:00
6:53 PM,79.0,62.1,56,29.96,10.0,NW,4.6,-,N/A,,Clear,320,2013-07-25 23:53:00
7:53 PM,75.0,64.0,69,29.96,10.0,NNW,3.5,-,N/A,,Partly Cloudy,330,2013-07-26 00:53:00
8:53 PM,73.9,63.0,68,29.97,10.0,WNW,3.5,-,N/A,,Mostly Cloudy,290,2013-07-26 01:53:00
9:53 PM,69.1,63.0,81,29.99,10.0,WNW,4.6,-,N/A,,Clear,300,2013-07-26 02:53:00
10:53 PM,68.0,62.1,81,30.00,10.0,WNW,4.6,-,N/A,,Clear,290,2013-07-26 03:53:00
11:53 PM,66.0,63.0,90,30.03,10.0,NW,5.8,-,N/A,,Mostly Cloudy,310,2013-07-26 04:53:00